KK7ISX Weather Reports


time (UTC)temp
C
wind
direction
speed
KPH
gust
KPH
rain 1hr
cm
rain 24hr
cm
rain mn
cm
humidity
%
barometer
mb
20260503030737 21 231 1.6 1.6 0.00 0.00 0.00 36 1012.3
20260503030233 22 261 1.6 3.2 0.00 0.00 0.00 36 1012.2
20260503025730 22 238 1.6 1.6 0.00 0.00 0.00 35 1012.2
20260503025228 22 239 0.0 1.6 0.00 0.00 0.00 35 1012.4
20260503024725 22 228 0.0 1.6 0.00 0.00 0.00 35 1012.4
20260503024222 22 229 0.0 0.0 0.00 0.00 0.00 35 1012.3
20260503023719 22 222 0.0 0.0 0.00 0.00 0.00 34 1012.4
20260503023215 22 219 0.0 0.0 0.00 0.00 0.00 34 1012.4
20260503022711 23 227 1.6 1.6 0.00 0.00 0.00 33 1012.3
20260503022211 23 281 1.6 3.2 0.00 0.00 0.00 33 1012.2
20260503021708 23 237 0.0 0.0 0.00 0.00 0.00 33 1012.1
20260503021159 23 233 0.0 0.0 0.00 0.00 0.00 32 1012.3
20260503020657 23 246 0.0 0.0 0.00 0.00 0.00 32 1012.3
20260503020154 23 212 0.0 1.6 0.00 0.00 0.00 32 1012.3
20260503015651 23 228 1.6 3.2 0.00 0.00 0.00 32 1012.3
20260503015148 23 223 1.6 1.6 0.00 0.00 0.00 30 1012.2
20260503014644 23 352 4.8 9.7 0.00 0.00 0.00 30 1012.3
20260503014142 24 245 1.6 3.2 0.00 0.00 0.00 30 1012.2
20260503013639 24 22 4.8 6.4 0.00 0.00 0.00 29 1012.2
20260503013137 24 263 1.6 1.6 0.00 0.00 0.00 29 1012.3
20260503012633 25 281 1.6 3.2 0.00 0.00 0.00 28 1012.4
20260503012130 25 320 1.6 3.2 0.00 0.00 0.00 28 1012.3
20260503011627 25 208 1.6 3.2 0.00 0.00 0.00 28 1012.3
20260503011124 25 25 4.8 4.8 0.00 0.00 0.00 25 1012.3
20260503010620 25 209 0.0 0.0 0.00 0.00 0.00 22 1012.5
20260503010118 26 215 0.0 0.0 0.00 0.00 0.00 22 1012.5
20260503005614 26 212 0.0 0.0 0.00 0.00 0.00 21 1012.4
20260503005112 26 225 1.6 1.6 0.00 0.00 0.00 23 1012.4
20260503004608 26 167 1.6 3.2 0.00 0.00 0.00 22 1012.5
20260503004107 26 171 0.0 0.0 0.00 0.00 0.00 23 1012.4
20260503003603 27 320 1.6 4.8 0.00 0.00 0.00 21 1012.5
20260503003100 26 219 0.0 0.0 0.00 0.00 0.00 20 1012.5
20260503002556 26 278 1.6 1.6 0.00 0.00 0.00 21 1012.5
20260503002053 27 205 0.0 0.0 0.00 0.00 0.00 21 1012.4
20260503001549 27 205 1.6 1.6 0.00 0.00 0.00 22 1012.5
20260503001047 27 215 0.0 0.0 0.00 0.00 0.00 22 1012.4
20260503000544 27 223 1.6 3.2 0.00 0.00 0.00 20 1012.5
20260503000041 26 217 0.0 0.0 0.00 0.00 0.00 19 1013.0
20260502235537 26 206 1.6 1.6 0.00 0.00 0.00 21 1012.6
20260502235035 27 210 0.0 0.0 0.00 0.00 0.00 20 1012.8
20260502234531 26 160 0.0 0.0 0.00 0.00 0.00 20 1012.9
20260502234030 26 173 1.6 1.6 0.00 0.00 0.00 20 1012.8
20260502233530 26 201 0.0 0.0 0.00 0.00 0.00 20 1012.9
20260502233027 26 194 0.0 0.0 0.00 0.00 0.00 20 1012.8
20260502232523 26 199 1.6 1.6 0.00 0.00 0.00 21 1013.0
20260502232020 27 174 1.6 3.2 0.00 0.00 0.00 21 1012.9
20260502231517 26 236 1.6 1.6 0.00 0.00 0.00 20 1013.0
20260502231015 27 155 3.2 3.2 0.00 0.00 0.00 21 1013.1
20260502230513 26 283 3.2 4.8 0.00 0.00 0.00 20 1013.1
20260502230011 26 104 1.6 3.2 0.00 0.00 0.00 20 1013.2
20260502225506 27 265 3.2 4.8 0.00 0.00 0.00 21 1013.3
20260502225003 27 224 1.6 4.8 0.00 0.00 0.00 19 1013.2
20260502224459 26 164 1.6 3.2 0.00 0.00 0.00 20 1013.2
20260502223956 26 57 4.8 4.8 0.00 0.00 0.00 21 1013.3
20260502223454 26 75 8.0 9.7 0.00 0.00 0.00 21 1013.6
20260502222952 26 170 1.6 1.6 0.00 0.00 0.00 21 1013.6
20260502222449 26 199 3.2 3.2 0.00 0.00 0.00 22 1013.6
20260502221945 26 185 4.8 4.8 0.00 0.00 0.00 22 1013.6
20260502221441 26 184 3.2 3.2 0.00 0.00 0.00 22 1013.4
20260502220939 26 147 4.8 6.4 0.00 0.00 0.00 21 1013.6
20260502220434 26 207 1.6 1.6 0.00 0.00 0.00 22 1013.8
20260502215931 26 132 9.7 12.9 0.00 0.00 0.00 22 1013.8
20260502215429 26 103 6.4 9.7 0.00 0.00 0.00 22 1014.2
20260502214925 26 167 1.6 3.2 0.00 0.00 0.00 22 1014.2
20260502214422 26 151 4.8 6.4 0.00 0.00 0.00 22 1014.2
20260502213920 26 103 6.4 9.7 0.00 0.00 0.00 22 1014.4
20260502213416 26 180 0.0 1.6 0.00 0.00 0.00 22 1014.2
20260502212915 27 166 9.7 11.3 0.00 0.00 0.00 22 1014.2
20260502212413 26 205 3.2 4.8 0.00 0.00 0.00 22 1014.3
20260502211910 26 140 4.8 4.8 0.00 0.00 0.00 23 1014.3
20260502211405 27 156 9.7 12.9 0.00 0.00 0.00 23 1014.5
20260502210903 27 107 1.6 1.6 0.00 0.00 0.00 24 1014.5
20260502210400 27 208 9.7 11.3 0.00 0.00 0.00 23 1014.6
20260502205857 26 221 3.2 3.2 0.00 0.00 0.00 25 1014.7
20260502205353 26 220 0.0 1.6 0.00 0.00 0.00 22 1014.8
20260502204850 25 83 3.2 3.2 0.00 0.00 0.00 22 1014.8
20260502204347 25 162 9.7 14.5 0.00 0.00 0.00 22 1014.8
20260502203845 26 86 3.2 3.2 0.00 0.00 0.00 23 1014.9
20260502203342 26 140 6.4 6.4 0.00 0.00 0.00 23 1014.8
20260502202838 25 188 8.0 9.7 0.00 0.00 0.00 24 1014.9
20260502202335 26 172 9.7 14.5 0.00 0.00 0.00 23 1015.0
20260502201833 26 205 4.8 6.4 0.00 0.00 0.00 25 1015.0
20260502201329 25 185 6.4 6.4 0.00 0.00 0.00 25 1015.0
20260502200826 25 173 9.7 12.9 0.00 0.00 0.00 24 1015.0
20260502200321 26 192 6.4 9.7 0.00 0.00 0.00 24 1015.2
20260502195820 25 151 4.8 6.4 0.00 0.00 0.00 25 1015.1
20260502195316 25 197 4.8 4.8 0.00 0.00 0.00 25 1015.4
20260502194813 25 191 8.0 11.3 0.00 0.00 0.00 27 1015.4
20260502194310 25 246 0.0 0.0 0.00 0.00 0.00 31 1015.4
20260502193805 24 211 0.0 0.0 0.00 0.00 0.00 32 1015.4
20260502193303 24 168 0.0 1.6 0.00 0.00 0.00 32 1015.6
20260502192758 23 121 4.8 4.8 0.00 0.00 0.00 32 1015.8
20260502192256 23 90 3.2 4.8 0.00 0.00 0.00 35 1015.9
20260502191752 23 219 0.0 0.0 0.00 0.00 0.00 32 1016.0
20260502191250 23 217 3.2 4.8 0.00 0.00 0.00 32 1016.1
20260502190747 23 34 4.8 6.4 0.00 0.00 0.00 33 1016.0
20260502190244 23 203 0.0 1.6 0.00 0.00 0.00 33 1016.0
20260502185739 23 90 4.8 6.4 0.00 0.00 0.00 33 1016.1
20260502185236 23 211 6.4 6.4 0.00 0.00 0.00 34 1016.2
20260502184732 22 220 3.2 4.8 0.00 0.00 0.00 35 1016.2
20260502184228 22 143 4.8 6.4 0.00 0.00 0.00 36 1016.5
20260502183725 22 67 3.2 3.2 0.00 0.00 0.00 35 1016.6
20260502183220 22 158 6.4 9.7 0.00 0.00 0.00 35 1016.5
20260502182716 22 198 3.2 4.8 0.00 0.00 0.00 37 1016.8
20260502182211 22 113 6.4 9.7 0.00 0.00 0.00 36 1016.9
20260502181708 22 181 1.6 1.6 0.00 0.00 0.00 37 1016.9
20260502181203 22 180 3.2 3.2 0.00 0.00 0.00 37 1016.8
20260502180659 21 224 1.6 3.2 0.00 0.00 0.00 38 1016.9
20260502180156 21 329 3.2 4.8 0.00 0.00 0.00 39 1016.9
20260502170120 18 228 1.6 3.2 0.00 0.00 0.00 42 1017.3
20260502164101 17 201 3.2 4.8 0.00 0.00 0.00 43 1017.5
20260502163557 17 220 1.6 3.2 0.00 0.00 0.00 42 1017.5
20260502163054 17 200 3.2 3.2 0.00 0.00 0.00 43 1017.6
20260502162551 16 202 3.2 4.8 0.00 0.00 0.00 45 1017.7
20260502162048 16 228 4.8 6.4 0.00 0.00 0.00 45 1017.6
20260502161545 16 177 4.8 4.8 0.00 0.00 0.00 46 1017.5
20260502161042 15 154 3.2 3.2 0.00 0.00 0.00 47 1017.6
20260502160540 15 218 8.0 11.3 0.00 0.00 0.00 46 1017.6
20260502151953 15 124 4.8 6.4 0.00 0.00 0.00 50 1017.4
20260502151450 14 153 3.2 3.2 0.00 0.00 0.00 51 1017.5
20260502150947 14 156 4.8 4.8 0.00 0.00 0.00 50 1017.3
20260502150444 14 149 4.8 6.4 0.00 0.00 0.00 50 1017.5
20260502130329 10 198 3.2 3.2 0.00 0.00 0.00 55 1016.6
20260502123815 10 221 3.2 3.2 0.00 0.00 0.00 56 1016.8
20260502123312 10 188 0.0 0.0 0.00 0.00 0.00 57 1016.6
20260502122809 10 223 1.6 1.6 0.00 0.00 0.00 57 1016.8
20260502122306 11 203 3.2 3.2 0.00 0.00 0.00 55 1016.8
20260502121803 10 181 3.2 4.8 0.00 0.00 0.00 56 1016.8
20260502121301 10 207 4.8 6.4 0.00 0.00 0.00 57 1016.8
20260502120757 10 163 3.2 3.2 0.00 0.00 0.00 56 1016.5
20260502120254 11 182 3.2 3.2 0.00 0.00 0.00 56 1016.5
20260502115752 11 169 3.2 3.2 0.00 0.00 0.00 55 1016.3
20260502115248 11 180 3.2 4.8 0.00 0.00 0.00 54 1016.5
20260502114744 11 189 4.8 6.4 0.00 0.00 0.00 55 1016.8
20260502114241 10 143 4.8 4.8 0.00 0.00 0.00 57 1016.6
20260502113738 10 162 1.6 4.8 0.00 0.00 0.00 57 1016.6
20260502113236 10 179 3.2 3.2 0.00 0.00 0.00 57 1016.9
20260502112734 10 178 3.2 3.2 0.00 0.00 0.00 56 1016.8
20260502112231 11 191 1.6 1.6 0.00 0.00 0.00 56 1017.0
20260502111728 11 161 3.2 4.8 0.00 0.00 0.00 56 1016.9
20260502111226 11 184 8.0 9.7 0.00 0.00 0.00 56 1016.9
20260502110723 10 165 4.8 4.8 0.00 0.00 0.00 57 1016.8
20260502110221 11 196 1.6 1.6 0.00 0.00 0.00 57 1016.9
20260502105719 11 204 0.0 1.6 0.00 0.00 0.00 56 1017.1
20260502105215 11 197 1.6 1.6 0.00 0.00 0.00 56 1016.6
20260502104713 11 187 1.6 3.2 0.00 0.00 0.00 55 1016.6
20260502104210 11 162 3.2 3.2 0.00 0.00 0.00 55 1017.0
20260502103707 11 201 6.4 6.4 0.00 0.00 0.00 55 1016.4
20260502103205 11 168 3.2 3.2 0.00 0.00 0.00 55 1016.9
20260502102702 11 176 1.6 3.2 0.00 0.00 0.00 55 1016.8
20260502102158 11 179 4.8 4.8 0.00 0.00 0.00 55 1016.8
20260502101656 11 187 1.6 3.2 0.00 0.00 0.00 54 1016.8
20260502101154 11 194 3.2 3.2 0.00 0.00 0.00 54 1016.9
20260502100653 11 191 1.6 3.2 0.00 0.00 0.00 54 1016.9
20260502100151 12 157 9.7 12.9 0.00 0.00 0.00 52 1016.8
20260502091125 11 201 3.2 3.2 0.00 0.00 0.00 54 1016.6
20260502090621 11 145 3.2 3.2 0.00 0.00 0.00 53 1016.6
20260502090119 11 185 1.6 3.2 0.00 0.00 0.00 54 1016.8
20260502071516 12 191 1.6 1.6 0.00 0.00 0.00 50 1017.0
20260502071014 13 187 3.2 3.2 0.00 0.00 0.00 50 1017.2
20260502070512 13 159 3.2 4.8 0.00 0.00 0.00 50 1017.2
20260502070010 13 187 1.6 3.2 0.00 0.00 0.00 50 1017.2
20260502065508 13 157 6.4 6.4 0.00 0.00 0.00 49 1017.0
20260502065006 13 157 6.4 9.7 0.00 0.00 0.00 49 1017.1
20260502064504 13 143 6.4 6.4 0.00 0.00 0.00 50 1017.0
20260502064001 13 162 4.8 6.4 0.00 0.00 0.00 50 1017.1
20260502063459 13 156 4.8 4.8 0.00 0.00 0.00 50 1017.1
20260502062956 13 164 6.4 9.7 0.00 0.00 0.00 49 1017.2
20260502062452 13 155 4.8 6.4 0.00 0.00 0.00 50 1017.3
20260502061951 13 139 6.4 6.4 0.00 0.00 0.00 50 1017.2
20260502061449 13 181 4.8 4.8 0.00 0.00 0.00 50 1017.3
20260502060944 13 169 4.8 4.8 0.00 0.00 0.00 50 1017.1
20260502060440 13 148 4.8 6.4 0.00 0.00 0.00 49 1016.9
20260502055937 13 178 3.2 3.2 0.00 0.00 0.00 50 1017.1
20260502055435 12 154 4.8 4.8 0.00 0.00 0.00 50 1017.0
20260502054929 13 176 3.2 3.2 0.00 0.00 0.00 49 1017.3
20260502054427 13 154 3.2 4.8 0.00 0.00 0.00 49 1017.2
20260502053924 13 187 3.2 4.8 0.00 0.00 0.00 49 1017.0
20260502053421 13 165 3.2 4.8 0.00 0.00 0.00 48 1017.2
20260502052918 13 159 3.2 3.2 0.00 0.00 0.00 48 1017.2
20260502052416 13 153 4.8 4.8 0.00 0.00 0.00 47 1017.2
20260502051914 13 160 6.4 9.7 0.00 0.00 0.00 47 1017.2
20260502051412 13 175 3.2 3.2 0.00 0.00 0.00 46 1017.3
20260502050909 13 184 0.0 0.0 0.00 0.00 0.00 47 1017.3
20260502050405 13 174 1.6 1.6 0.00 0.00 0.00 45 1017.1
20260502045903 13 174 0.0 1.6 0.00 0.00 0.00 45 1017.2
20260502045359 14 182 1.6 1.6 0.00 0.00 0.00 45 1017.1
20260502044856 14 159 1.6 1.6 0.00 0.00 0.00 44 1017.1
20260502044352 15 156 1.6 3.2 0.00 0.00 0.00 43 1017.1
20260502043849 15 151 3.2 3.2 0.00 0.00 0.00 42 1017.2
20260502043347 15 203 0.0 0.0 0.00 0.00 0.00 42 1017.2
20260502042846 15 144 1.6 1.6 0.00 0.00 0.00 41 1017.3
20260502042344 15 145 1.6 1.6 0.00 0.00 0.00 42 1017.4
20260502041841 14 129 1.6 3.2 0.00 0.00 0.00 43 1017.3
20260502041338 15 200 0.0 0.0 0.00 0.00 0.00 44 1017.2
20260502040835 15 165 0.0 1.6 0.00 0.00 0.00 42 1017.1
20260502040332 15 187 0.0 0.0 0.00 0.00 0.00 44 1017.1
20260502035828 15 194 0.0 0.0 0.00 0.00 0.00 42 1017.0
20260502035325 16 181 0.0 0.0 0.00 0.00 0.00 41 1017.1
20260502034822 16 161 0.0 0.0 0.00 0.00 0.00 38 1017.0
20260502034321 16 189 0.0 0.0 0.00 0.00 0.00 41 1017.0
20260502033819 16 197 0.0 0.0 0.00 0.00 0.00 39 1017.0
20260502033316 16 206 0.0 0.0 0.00 0.00 0.00 41 1017.0
20260502032813 16 199 0.0 0.0 0.00 0.00 0.00 39 1016.9
20260502032309 16 198 0.0 0.0 0.00 0.00 0.00 37 1016.9
20260502031807 17 198 0.0 0.0 0.00 0.00 0.00 39 1016.6
20260502031305 17 198 0.0 0.0 0.00 0.00 0.00 37 1016.8